Location: Happy Homes Park
(37.7458°N, 99.9763°W)
Time: 19:34:23
(UTC+00:00)

SJ-12 - Pass Details

Date: 06 October 2022
Orbit: 564 x 579 km, 97.7° (Epoch: 27 November)

Event Time Altitude Azimuth Distance (km) Brightness Sun altitude
Rises 12:04:07 0° 5° (N) 2,791 7.5 -7.9°
Reaches altitude 10° 12:06:19 10° 359° (N) 1,891 6.6 -7.5°
Maximum altitude 12:10:15 47° 286° (WNW) 774 4.2 -6.7°
Drops below altitude 10° 12:14:10 10° 213° (SSW) 1,886 6.3 -5.9°
Sets 12:16:22 0° 207° (SSW) 2,782 7.2 -5.5°
